Погода в Баунте

Россия / Республика Бурятия     55°15′13″N   113°07′07″E
темп.,
°C
ветер,
м/с
пор.,
м/с
влажн.,
%
обл.,
%
осадки,
мм/ч
давл.,
гПа
погр.,
м
9 марта, вт
вт923:00−20зсз33810 0.0 102723
02:00−22з22810 0.0 102920
05:00−23з11810 0.0 102920
08:00−22зсз118232 0.0 102920
11:00−16ю1175100 0.0 1025230
14:00−13юв1274100 0.0 1019481
17:00−12с1288100 0.0 101897
20:00−15зсз1189100 0.0 101920
10 марта, ср
ср1023:00−17з229067 0.0 101820
02:00−15з358665 0.0 102076
05:00−17з348528 0.0 102327
08:00−17зсз338623 0.0 102634
11:00−11з47690 0.0 1026946
14:00−9з48570 0.0 10251345
17:00−10з34700 0.0 1025116
20:00−17зсз22770 0.0 102820
11 марта, чт
чт1123:00−19з22830 0.0 102820
02:00−21з12840 0.0 102820
05:00−21з128412 0.0 102820
08:00−19зюз11826 0.0 102820
11:00−13ююз11710 0.0 1025238
14:00−8ю13720 0.0 1022402
17:00−7ююв118744 0.0 102125
20:00−12в119171 0.0 102221
12 марта, пт
пт1223:00−14зюз1191100 0.0 102121
02:00−14з228781 0.0 102020
05:00−15з117915 0.0 102120
08:00−12зсз117458 0.0 102020
11:00−7юв2274100 0.0 1017133
14:00−6юв1175100 0.0 1013181
17:00−5юз1185100 0.0 1012100
20:00−6з2289100 0.1 101423
13 марта, сб
сб1323:00−10з338914 0.0 101623
02:00−14зюз23907 0.0 101621
05:00−15з119358 0.0 101320
08:00−14з119378 0.0 101120
11:00−8юз2288100 0.1 1008243
14:00−5ююз2482100 0.1 1005541
17:00−4зюз1279100 0.1 100460
20:00−9зсз1188100 0.2 100621